| time (UTC) | temp C | wind direction | speed KPH | gust KPH | rain 1hr cm | rain 24hr cm | rain mn cm | humidity % | barometer mb |
| 20260507030644 | 6 | 306 | 4.8 | 22.5 | 0.03 | 1.65 | 1.65 | 98 | 1004.9 |
| 20260507030138 | 5 | 296 | 6.4 | 22.5 | 0.03 | 1.65 | 1.65 | 98 | 1004.9 |
| 20260507025628 | 6 | 19 | 4.8 | 19.3 | 0.03 | 1.63 | 1.63 | 98 | 1004.9 |
| 20260507025122 | 6 | 15 | 4.8 | 19.3 | 0.03 | 1.63 | 1.63 | 98 | 1005.1 |
| 20260507024616 | 6 | 351 | 4.8 | 19.3 | 0.03 | 1.63 | 1.63 | 98 | 1005.1 |
| 20260507024547 | 6 | 323 | 4.8 | 17.7 | 0.03 | 1.63 | 1.63 | 98 | 1005.0 |
| 20260507023556 | 6 | 293 | 6.4 | 17.7 | 0.05 | 1.63 | 1.63 | 98 | 1005.0 |
| 20260507023050 | 6 | 266 | 4.8 | 17.7 | 0.05 | 1.63 | 1.63 | 98 | 1005.0 |
| 20260507022540 | 6 | 292 | 4.8 | 17.7 | 0.05 | 1.63 | 1.63 | 98 | 1004.9 |
| 20260507022034 | 6 | 254 | 4.8 | 17.7 | 0.08 | 1.63 | 1.63 | 98 | 1004.8 |
| 20260507021528 | 6 | 295 | 4.8 | 19.3 | 0.08 | 1.63 | 1.63 | 98 | 1004.9 |
| 20260507021018 | 6 | 292 | 3.2 | 19.3 | 0.10 | 1.63 | 1.63 | 98 | 1004.8 |
| 20260507020512 | 6 | 318 | 3.2 | 19.3 | 0.10 | 1.63 | 1.63 | 98 | 1004.9 |
| 20260507020007 | 7 | 290 | 1.6 | 14.5 | 0.10 | 1.63 | 1.63 | 98 | 1004.9 |
| 20260507015710 | 7 | 281 | 0.0 | 9.7 | 0.08 | 1.60 | 1.60 | 99 | 1004.8 |
| 20260507014946 | 7 | 290 | 0.0 | 6.4 | 0.08 | 1.60 | 1.60 | 99 | 1004.9 |
| 20260507014440 | 7 | 290 | 0.0 | 6.4 | 0.10 | 1.60 | 1.60 | 99 | 1004.8 |
| 20260507013930 | 7 | 315 | 0.0 | 6.4 | 0.10 | 1.60 | 1.60 | 99 | 1004.7 |
| 20260507013425 | 7 | 306 | 0.0 | 12.9 | 0.08 | 1.57 | 1.57 | 99 | 1004.8 |
| 20260507012918 | 8 | 303 | 0.0 | 12.9 | 0.08 | 1.57 | 1.57 | 99 | 1004.5 |
| 20260507012627 | 8 | 304 | 0.0 | 4.8 | 0.05 | 1.55 | 1.55 | 99 | 1004.4 |
| 20260507012139 | 8 | 234 | 0.0 | 0.0 | 0.05 | 1.55 | 1.55 | 99 | 1004.3 |
| 20260507010859 | 8 | 321 | 0.0 | 3.2 | 0.03 | 1.52 | 1.52 | 99 | 1004.2 |
| 20260507010357 | 9 | 311 | 0.0 | 1.6 | 0.03 | 1.52 | 1.52 | 99 | 1004.2 |
| 20260507005858 | 9 | 311 | 0.0 | 0.0 | 0.03 | 1.52 | 1.52 | 99 | 1004.3 |
| 20260507005357 | 9 | 310 | 0.0 | 0.0 | 0.03 | 1.52 | 1.52 | 99 | 1004.1 |
| 20260507004859 | 10 | 301 | 0.0 | 0.0 | 0.03 | 1.52 | 1.52 | 99 | 1004.4 |
| 20260507004619 | 10 | 317 | 0.0 | 0.0 | 0.00 | 1.50 | 1.50 | 100 | 1004.2 |
| 20260507003856 | 10 | 313 | 0.0 | 0.0 | 0.00 | 1.50 | 1.50 | 100 | 1004.0 |
| 20260507002349 | 10 | 279 | 0.0 | 3.2 | 0.00 | 1.50 | 1.50 | 99 | 1003.9 |
| 20260507001848 | 10 | 204 | 0.0 | 0.0 | 0.00 | 1.50 | 1.50 | 100 | 1004.0 |
| 20260507001347 | 10 | 204 | 0.0 | 1.6 | 0.00 | 1.50 | 1.50 | 100 | 1003.8 |
| 20260507001118 | 10 | 204 | 0.0 | 4.8 | 0.00 | 1.50 | 1.50 | 100 | 1003.5 |
| 20260507000343 | 10 | 205 | 0.0 | 4.8 | 0.00 | 1.50 | 1.50 | 100 | 1003.7 |
| 20260506235842 | 10 | 222 | 0.0 | 4.8 | 0.00 | 1.50 | 1.50 | 99 | 1003.6 |
| 20260506235610 | 10 | 11 | 0.0 | 3.2 | 0.00 | 1.50 | 1.50 | 99 | 1003.5 |
| 20260506233838 | 11 | 145 | 0.0 | 1.6 | 0.00 | 1.50 | 1.50 | 100 | 1003.1 |
| 20260506233336 | 11 | 145 | 0.0 | 1.6 | 0.00 | 1.50 | 1.50 | 100 | 1003.2 |
| 20260506232837 | 12 | 145 | 0.0 | 1.6 | 0.00 | 1.50 | 1.50 | 100 | 1003.1 |
| 20260506232335 | 12 | 145 | 0.0 | 3.2 | 0.10 | 1.50 | 1.50 | 100 | 1003.1 |
| 20260506231838 | 12 | 146 | 0.0 | 3.2 | 0.20 | 1.50 | 1.50 | 100 | 1003.0 |
| 20260506231337 | 12 | 175 | 0.0 | 3.2 | 0.25 | 1.50 | 1.50 | 100 | 1003.1 |
| 20260506230837 | 13 | 150 | 0.0 | 3.2 | 0.33 | 1.50 | 1.50 | 100 | 1003.1 |
| 20260506230336 | 13 | 165 | 0.0 | 0.0 | 0.36 | 1.50 | 1.50 | 100 | 1003.1 |
| 20260506225836 | 13 | 112 | 0.0 | 0.0 | 0.36 | 1.50 | 1.50 | 100 | 1003.0 |
| 20260506225336 | 13 | 115 | 0.0 | 0.0 | 0.38 | 1.50 | 1.50 | 100 | 1003.0 |
| 20260506224836 | 13 | 115 | 0.0 | 1.6 | 0.46 | 1.50 | 1.50 | 100 | 1002.9 |
| 20260506224336 | 13 | 115 | 0.0 | 1.6 | 0.46 | 1.50 | 1.50 | 100 | 1002.8 |
| 20260506223835 | 13 | 83 | 0.0 | 3.2 | 0.48 | 1.50 | 1.50 | 100 | 1002.9 |
| 20260506223337 | 13 | 33 | 0.0 | 11.3 | 0.51 | 1.50 | 1.50 | 100 | 1002.9 |
| 20260506223054 | 13 | 355 | 0.0 | 11.3 | 0.56 | 1.50 | 1.50 | 100 | 1002.9 |
| 20260506222336 | 13 | 294 | 0.0 | 9.7 | 0.53 | 1.40 | 1.42 | 100 | 1002.9 |
| 20260506221834 | 13 | 250 | 1.6 | 9.7 | 0.46 | 1.30 | 1.30 | 100 | 1002.8 |
| 20260506221335 | 13 | 132 | 3.2 | 11.3 | 0.43 | 1.24 | 1.24 | 100 | 1002.5 |
| 20260506221309 | 13 | 182 | 1.6 | 11.3 | 0.38 | 1.17 | 1.17 | 100 | 1002.6 |
| 20260506220334 | 13 | 186 | 1.6 | 11.3 | 0.38 | 1.17 | 1.14 | 100 | 1002.6 |
| 20260506215834 | 13 | 136 | 1.6 | 11.3 | 0.38 | 1.22 | 1.14 | 100 | 1002.6 |
| 20260506215336 | 13 | 131 | 0.0 | 9.7 | 0.36 | 1.24 | 1.12 | 100 | 1002.8 |
| 20260506214821 | 13 | 134 | 1.6 | 9.7 | 0.30 | 1.19 | 1.04 | 100 | 1002.9 |
| 20260506214315 | 13 | 143 | 1.6 | 12.9 | 0.30 | 1.22 | 1.04 | 100 | 1002.8 |
| 20260506213809 | 13 | 172 | 3.2 | 12.9 | 0.30 | 1.22 | 1.02 | 100 | 1002.9 |
| 20260506213259 | 13 | 131 | 3.2 | 12.9 | 0.28 | 1.22 | 0.99 | 100 | 1002.9 |
| 20260506212753 | 13 | 169 | 1.6 | 9.7 | 0.20 | 1.14 | 0.94 | 100 | 1003.0 |
| 20260506212734 | 13 | 109 | 3.2 | 11.3 | 0.15 | 1.09 | 0.86 | 100 | 1003.1 |
| 20260506211733 | 13 | 149 | 3.2 | 17.7 | 0.13 | 1.07 | 0.84 | 100 | 1003.1 |
| 20260506211227 | 13 | 167 | 3.2 | 16.1 | 0.13 | 1.04 | 0.81 | 100 | 1003.0 |
| 20260506210944 | 13 | 159 | 3.2 | 11.3 | 0.08 | 0.99 | 0.79 | 100 | 1003.1 |
| 20260506210212 | 13 | 138 | 3.2 | 11.3 | 0.08 | 0.99 | 0.76 | 100 | 1003.2 |
| 20260506205706 | 13 | 155 | 3.2 | 11.3 | 0.08 | 0.99 | 0.76 | 100 | 1003.2 |
| 20260506205159 | 13 | 140 | 3.2 | 9.7 | 0.08 | 0.99 | 0.76 | 100 | 1003.3 |
| 20260506204646 | 13 | 148 | 3.2 | 12.9 | 0.05 | 0.97 | 0.74 | 100 | 1003.3 |
| 20260506204139 | 13 | 132 | 3.2 | 12.9 | 0.05 | 0.97 | 0.74 | 100 | 1003.4 |
| 20260506203633 | 13 | 160 | 3.2 | 11.3 | 0.03 | 0.94 | 0.71 | 100 | 1003.3 |
| 20260506203123 | 13 | 138 | 3.2 | 12.9 | 0.05 | 0.94 | 0.71 | 100 | 1003.4 |
| 20260506202837 | 13 | 189 | 3.2 | 12.9 | 0.05 | 0.94 | 0.71 | 100 | 1003.5 |
| 20260506202111 | 13 | 167 | 3.2 | 11.3 | 0.05 | 0.94 | 0.71 | 100 | 1003.5 |
| 20260506201557 | 13 | 159 | 3.2 | 14.5 | 0.05 | 0.91 | 0.71 | 100 | 1003.6 |
| 20260506201051 | 13 | 143 | 3.2 | 14.5 | 0.05 | 0.91 | 0.69 | 100 | 1003.7 |
| 20260506200544 | 13 | 168 | 3.2 | 14.5 | 0.08 | 0.91 | 0.69 | 100 | 1003.7 |
| 20260506200035 | 13 | 128 | 3.2 | 12.9 | 0.08 | 0.91 | 0.69 | 100 | 1003.7 |
| 20260506195529 | 13 | 163 | 3.2 | 11.3 | 0.10 | 0.91 | 0.69 | 100 | 1003.8 |
| 20260506195023 | 13 | 136 | 3.2 | 11.3 | 0.10 | 0.91 | 0.69 | 100 | 1003.8 |
| 20260506194509 | 13 | 130 | 1.6 | 11.3 | 0.13 | 0.91 | 0.69 | 100 | 1003.9 |
| 20260506194003 | 13 | 154 | 1.6 | 11.3 | 0.15 | 0.91 | 0.69 | 100 | 1003.9 |
| 20260506193457 | 13 | 129 | 1.6 | 8.0 | 0.13 | 0.89 | 0.66 | 100 | 1004.0 |
| 20260506192947 | 13 | 117 | 1.6 | 11.3 | 0.15 | 0.89 | 0.66 | 100 | 1004.1 |
| 20260506192442 | 13 | 135 | 3.2 | 14.5 | 0.18 | 0.89 | 0.66 | 100 | 1004.1 |
| 20260506192156 | 13 | 163 | 3.2 | 17.7 | 0.20 | 0.89 | 0.66 | 100 | 1004.2 |
| 20260506191432 | 13 | 161 | 3.2 | 17.7 | 0.18 | 0.86 | 0.64 | 100 | 1004.2 |
| 20260506190933 | 13 | 147 | 3.2 | 12.9 | 0.20 | 0.86 | 0.64 | 100 | 1004.2 |
| 20260506190433 | 13 | 161 | 3.2 | 11.3 | 0.20 | 0.84 | 0.61 | 100 | 1004.2 |
| 20260506190156 | 13 | 148 | 3.2 | 11.3 | 0.25 | 0.84 | 0.61 | 100 | 1004.2 |
| 20260506185431 | 13 | 153 | 4.8 | 14.5 | 0.25 | 0.81 | 0.58 | 100 | 1004.2 |
| 20260506184931 | 13 | 154 | 4.8 | 16.1 | 0.25 | 0.81 | 0.58 | 100 | 1004.4 |
| 20260506184434 | 13 | 150 | 4.8 | 16.1 | 0.25 | 0.79 | 0.56 | 100 | 1004.3 |
| 20260506183938 | 13 | 160 | 4.8 | 12.9 | 0.25 | 0.76 | 0.53 | 100 | 1004.3 |
| 20260506183431 | 13 | 135 | 3.2 | 12.9 | 0.28 | 0.76 | 0.53 | 100 | 1004.3 |
| 20260506182931 | 13 | 140 | 1.6 | 9.7 | 0.28 | 0.74 | 0.51 | 100 | 1004.5 |
| 20260506182926 | 13 | 157 | 1.6 | 9.7 | 0.28 | 0.71 | 0.48 | 100 | 1004.5 |
| 20260506181927 | 13 | 133 | 1.6 | 12.9 | 0.25 | 0.69 | 0.46 | 100 | 1004.6 |
| 20260506181655 | 13 | 186 | 1.6 | 12.9 | 0.28 | 0.69 | 0.46 | 100 | 1004.7 |
| 20260506180920 | 13 | 146 | 1.6 | 11.3 | 0.28 | 0.66 | 0.43 | 100 | 1004.8 |
| 20260506180414 | 13 | 160 | 1.6 | 11.3 | 0.25 | 0.64 | 0.41 | 100 | 1004.9 |
| 20260506175912 | 13 | 130 | 1.6 | 11.3 | 0.23 | 0.58 | 0.36 | 99 | 1005.0 |
| 20260506175413 | 13 | 159 | 1.6 | 11.3 | 0.20 | 0.56 | 0.33 | 99 | 1005.0 |
| 20260506173910 | 13 | 178 | 0.0 | 6.4 | 0.20 | 0.51 | 0.28 | 99 | 1005.1 |
| 20260506173412 | 13 | 178 | 0.0 | 0.0 | 0.18 | 0.48 | 0.25 | 99 | 1005.1 |
| 20260506172909 | 13 | 178 | 0.0 | 0.0 | 0.15 | 0.46 | 0.23 | 99 | 1005.3 |
| 20260506172409 | 13 | 178 | 0.0 | 0.0 | 0.15 | 0.43 | 0.23 | 98 | 1005.4 |
| 20260506172134 | 13 | 178 | 0.0 | 0.0 | 0.15 | 0.43 | 0.20 | 98 | 1005.5 |
| 20260506171409 | 13 | 178 | 0.0 | 0.0 | 0.13 | 0.41 | 0.18 | 98 | 1005.5 |
| 20260506170909 | 13 | 178 | 0.0 | 0.0 | 0.10 | 0.38 | 0.18 | 98 | 1005.6 |
| 20260506170410 | 13 | 178 | 0.0 | 0.0 | 0.10 | 0.38 | 0.15 | 98 | 1005.6 |
| 20260506165910 | 13 | 178 | 0.0 | 0.0 | 0.10 | 0.36 | 0.13 | 98 | 1005.7 |
| 20260506165640 | 13 | 178 | 0.0 | 0.0 | 0.10 | 0.36 | 0.13 | 97 | 1005.5 |
| 20260506165133 | 13 | 178 | 0.0 | 0.0 | 0.08 | 0.33 | 0.10 | 98 | 1005.6 |
| 20260506164412 | 13 | 178 | 0.0 | 0.0 | 0.08 | 0.33 | 0.10 | 97 | 1005.7 |
| 20260506164133 | 13 | 178 | 0.0 | 0.0 | 0.05 | 0.30 | 0.08 | 97 | 1005.7 |
| 20260506163415 | 13 | 178 | 0.0 | 0.0 | 0.08 | 0.30 | 0.08 | 97 | 1005.7 |
| 20260506163135 | 13 | 178 | 0.0 | 0.0 | 0.08 | 0.30 | 0.08 | 97 | 1005.8 |
| 20260506162408 | 13 | 178 | 0.0 | 0.0 | 0.05 | 0.28 | 0.08 | 97 | 1005.8 |
| 20260506162133 | 13 | 178 | 0.0 | 0.0 | 0.05 | 0.28 | 0.05 | 97 | 1005.9 |
| 20260506161402 | 13 | 178 | 0.0 | 0.0 | 0.05 | 0.28 | 0.05 | 97 | 1006.1 |
| 20260506160900 | 13 | 178 | 0.0 | 0.0 | 0.05 | 0.28 | 0.05 | 96 | 1006.2 |
| 20260506160357 | 13 | 178 | 0.0 | 0.0 | 0.05 | 0.28 | 0.05 | 96 | 1006.3 |
| 20260506155855 | 13 | 178 | 0.0 | 0.0 | 0.03 | 0.25 | 0.03 | 95 | 1006.5 |
| 20260506155355 | 13 | 178 | 0.0 | 0.0 | 0.03 | 0.25 | 0.03 | 95 | 1006.6 |
| 20260506154854 | 13 | 178 | 0.0 | 1.6 | 0.03 | 0.25 | 0.03 | 94 | 1006.7 |
| 20260506154616 | 13 | 178 | 0.0 | 3.2 | 0.03 | 0.25 | 0.03 | 94 | 1006.9 |
| 20260506153853 | 13 | 178 | 0.0 | 3.2 | 0.03 | 0.25 | 0.03 | 94 | 1007.0 |
| 20260506153353 | 13 | 178 | 0.0 | 0.0 | 0.00 | 0.23 | 0.00 | 93 | 1006.9 |
| 20260506152852 | 13 | 178 | 0.0 | 1.6 | 0.00 | 0.23 | 0.00 | 92 | 1006.9 |
| 20260506152352 | 13 | 178 | 0.0 | 1.6 | 0.00 | 0.23 | 0.00 | 92 | 1007.0 |
| 20260506151853 | 13 | 178 | 0.0 | 1.6 | 0.00 | 0.23 | 0.00 | 91 | 1006.9 |
| 20260506151354 | 13 | 178 | 0.0 | 1.6 | 0.00 | 0.23 | 0.00 | 91 | 1006.8 |
| 20260506150850 | 13 | 178 | 0.0 | 0.0 | 0.00 | 0.23 | 0.00 | 90 | 1006.7 |
| 20260506150349 | 13 | 178 | 0.0 | 0.0 | 0.00 | 0.23 | 0.00 | 90 | 1006.8 |
| 20260506145850 | 13 | 178 | 0.0 | 0.0 | 0.00 | 0.23 | 0.00 | 91 | 1006.9 |
| 20260506145349 | 13 | 178 | 0.0 | 0.0 | 0.00 | 0.23 | 0.00 | 90 | 1006.9 |
| 20260506144850 | 13 | 178 | 0.0 | 4.8 | 0.00 | 0.23 | 0.00 | 90 | 1006.9 |
| 20260506144356 | 13 | 177 | 0.0 | 4.8 | 0.00 | 0.23 | 0.00 | 89 | 1007.0 |
| 20260506143851 | 13 | 200 | 0.0 | 0.0 | 0.00 | 0.23 | 0.00 | 89 | 1007.0 |
| 20260506143351 | 13 | 175 | 0.0 | 1.6 | 0.00 | 0.23 | 0.00 | 89 | 1006.9 |
| 20260506143108 | 13 | 180 | 0.0 | 6.4 | 0.00 | 0.23 | 0.00 | 90 | 1007.0 |
| 20260506142330 | 13 | 177 | 1.6 | 6.4 | 0.00 | 0.23 | 0.00 | 89 | 1006.9 |
| 20260506141824 | 13 | 146 | 1.6 | 4.8 | 0.00 | 0.23 | 0.00 | 89 | 1006.9 |
| 20260506141319 | 13 | 128 | 0.0 | 4.8 | 0.00 | 0.23 | 0.00 | 90 | 1006.8 |
| 20260506140809 | 13 | 155 | 0.0 | 6.4 | 0.00 | 0.23 | 0.00 | 90 | 1006.9 |
| 20260506140303 | 13 | 153 | 0.0 | 6.4 | 0.00 | 0.23 | 0.00 | 90 | 1006.8 |
| 20260506135756 | 13 | 182 | 0.0 | 4.8 | 0.00 | 0.23 | 0.00 | 90 | 1006.8 |
| 20260506135242 | 13 | 179 | 0.0 | 6.4 | 0.00 | 0.23 | 0.00 | 90 | 1006.8 |
| 20260506134736 | 13 | 199 | 0.0 | 6.4 | 0.00 | 0.23 | 0.00 | 91 | 1006.8 |
| 20260506134230 | 13 | 151 | 0.0 | 4.8 | 0.00 | 0.23 | 0.00 | 91 | 1007.0 |
| 20260506133721 | 13 | 151 | 0.0 | 8.0 | 0.00 | 0.23 | 0.00 | 91 | 1007.1 |
| 20260506133214 | 13 | 151 | 0.0 | 8.0 | 0.00 | 0.23 | 0.00 | 92 | 1007.1 |
| 20260506132933 | 13 | 151 | 0.0 | 3.2 | 0.00 | 0.23 | 0.00 | 92 | 1007.3 |
| 20260506132155 | 13 | 151 | 0.0 | 3.2 | 0.00 | 0.23 | 0.00 | 91 | 1007.2 |
| 20260506131648 | 13 | 151 | 0.0 | 1.6 | 0.00 | 0.23 | 0.00 | 92 | 1007.1 |
| 20260506131412 | 13 | 151 | 0.0 | 4.8 | 0.00 | 0.23 | 0.00 | 91 | 1007.3 |
| 20260506130633 | 13 | 151 | 0.0 | 4.8 | 0.00 | 0.23 | 0.00 | 92 | 1007.2 |
| 20260506130127 | 13 | 145 | 0.0 | 6.4 | 0.00 | 0.23 | 0.00 | 92 | 1007.1 |
| 20260506130107 | 12 | 145 | 1.6 | 6.4 | 0.00 | 0.23 | 0.00 | 92 | 1007.3 |
| 20260506125106 | 12 | 143 | 1.6 | 6.4 | 0.00 | 0.23 | 0.00 | 91 | 1007.2 |
| 20260506124600 | 12 | 146 | 0.0 | 4.8 | 0.00 | 0.23 | 0.00 | 91 | 1007.2 |
| 20260506124055 | 12 | 154 | 1.6 | 8.0 | 0.00 | 0.23 | 0.00 | 91 | 1007.2 |
| 20260506123544 | 12 | 152 | 1.6 | 11.3 | 0.00 | 0.23 | 0.00 | 91 | 1007.1 |
| 20260506123038 | 12 | 162 | 1.6 | 11.3 | 0.00 | 0.23 | 0.00 | 91 | 1007.0 |
| 20260506122751 | 12 | 157 | 1.6 | 6.4 | 0.00 | 0.23 | 0.00 | 91 | 1007.0 |
| 20260506122245 | 12 | 157 | 1.6 | 8.0 | 0.00 | 0.23 | 0.00 | 91 | 1007.3 |
| 20260506121512 | 12 | 134 | 0.0 | 8.0 | 0.00 | 0.23 | 0.00 | 91 | 1007.2 |
| 20260506121007 | 13 | 147 | 0.0 | 8.0 | 0.00 | 0.23 | 0.00 | 91 | 1007.3 |
| 20260506120456 | 13 | 155 | 1.6 | 6.4 | 0.00 | 0.23 | 0.00 | 91 | 1007.4 |
| 20260506115950 | 13 | 155 | 1.6 | 6.4 | 0.00 | 0.23 | 0.00 | 92 | 1007.5 |
| 20260506115444 | 13 | 142 | 0.0 | 8.0 | 0.00 | 0.23 | 0.00 | 92 | 1007.4 |
| 20260506114930 | 12 | 139 | 1.6 | 8.0 | 0.00 | 0.23 | 0.00 | 92 | 1007.5 |
| 20260506114425 | 12 | 157 | 1.6 | 8.0 | 0.00 | 0.23 | 0.00 | 92 | 1007.5 |
| 20260506114140 | 12 | 159 | 1.6 | 8.0 | 0.00 | 0.23 | 0.00 | 93 | 1007.5 |
| 20260506113409 | 12 | 163 | 1.6 | 11.3 | 0.00 | 0.23 | 0.00 | 93 | 1007.4 |
| 20260506112903 | 12 | 176 | 1.6 | 11.3 | 0.00 | 0.23 | 0.00 | 94 | 1007.3 |
| 20260506112357 | 12 | 194 | 1.6 | 11.3 | 0.00 | 0.23 | 0.00 | 94 | 1007.4 |
| 20260506111843 | 12 | 163 | 1.6 | 11.3 | 0.00 | 0.23 | 0.00 | 94 | 1007.4 |
| 20260506111336 | 12 | 178 | 3.2 | 9.7 | 0.00 | 0.23 | 0.00 | 95 | 1007.4 |
| 20260506110830 | 12 | 182 | 1.6 | 9.7 | 0.00 | 0.23 | 0.00 | 96 | 1007.4 |
| 20260506110321 | 12 | 170 | 1.6 | 9.7 | 0.00 | 0.23 | 0.00 | 97 | 1007.4 |
| 20260506105814 | 11 | 153 | 1.6 | 9.7 | 0.00 | 0.23 | 0.00 | 98 | 1007.4 |
| 20260506105532 | 11 | 126 | 0.0 | 0.0 | 0.00 | 0.23 | 0.00 | 98 | 1007.4 |
| 20260506105017 | 11 | 126 | 0.0 | 0.0 | 0.00 | 0.23 | 0.00 | 98 | 1007.5 |
| 20260506104248 | 11 | 126 | 0.0 | 0.0 | 0.00 | 0.23 | 0.00 | 98 | 1007.5 |
| 20260506103742 | 11 | 126 | 0.0 | 0.0 | 0.00 | 0.23 | 0.00 | 98 | 1007.4 |
| 20260506103232 | 11 | 126 | 0.0 | 0.0 | 0.00 | 0.23 | 0.00 | 99 | 1007.4 |
| 20260506102726 | 11 | 126 | 0.0 | 0.0 | 0.00 | 0.23 | 0.00 | 98 | 1007.2 |
| 20260506102221 | 11 | 126 | 0.0 | 0.0 | 0.00 | 0.23 | 0.00 | 98 | 1007.2 |
| 20260506101706 | 11 | 126 | 0.0 | 0.0 | 0.00 | 0.23 | 0.00 | 98 | 1007.2 |
| 20260506101200 | 11 | 126 | 0.0 | 0.0 | 0.00 | 0.23 | 0.00 | 98 | 1007.2 |
| 20260506100654 | 11 | 126 | 0.0 | 0.0 | 0.00 | 0.23 | 0.00 | 98 | 1007.3 |
| 20260506100143 | 11 | 126 | 0.0 | 0.0 | 0.00 | 0.23 | 0.00 | 98 | 1007.3 |
| 20260506095637 | 11 | 126 | 0.0 | 0.0 | 0.00 | 0.23 | 0.00 | 98 | 1007.2 |
| 20260506095131 | 11 | 126 | 0.0 | 0.0 | 0.00 | 0.23 | 0.00 | 97 | 1007.2 |
| 20260506094618 | 11 | 126 | 0.0 | 0.0 | 0.00 | 0.23 | 0.00 | 97 | 1007.2 |
| 20260506094111 | 11 | 126 | 0.0 | 0.0 | 0.00 | 0.23 | 0.00 | 98 | 1007.3 |
| 20260506093605 | 11 | 126 | 0.0 | 0.0 | 0.00 | 0.23 | 0.00 | 98 | 1007.3 |
| 20260506093055 | 11 | 126 | 0.0 | 0.0 | 0.00 | 0.23 | 0.00 | 97 | 1007.2 |
| 20260506092550 | 11 | 126 | 0.0 | 0.0 | 0.00 | 0.23 | 0.00 | 97 | 1007.1 |
| 20260506092043 | 11 | 126 | 0.0 | 1.6 | 0.00 | 0.23 | 0.00 | 97 | 1007.2 |
| 20260506091529 | 11 | 126 | 0.0 | 1.6 | 0.00 | 0.23 | 0.00 | 96 | 1007.2 |
| 20260506091023 | 11 | 126 | 0.0 | 0.0 | 0.00 | 0.23 | 0.00 | 97 | 1007.3 |
| 20260506090517 | 11 | 126 | 0.0 | 0.0 | 0.00 | 0.23 | 0.00 | 96 | 1007.3 |
| 20260506090007 | 11 | 126 | 0.0 | 0.0 | 0.00 | 0.23 | 0.00 | 95 | 1007.3 |
| 20260506085001 | 12 | 126 | 0.0 | 0.0 | 0.00 | 0.23 | 0.00 | 95 | 1007.5 |
| 20260506084457 | 12 | 126 | 0.0 | 1.6 | 0.00 | 0.23 | 0.00 | 95 | 1007.4 |
| 20260506084218 | 12 | 126 | 0.0 | 1.6 | 0.00 | 0.23 | 0.00 | 96 | 1007.5 |
| 20260506083457 | 12 | 126 | 0.0 | 0.0 | 0.00 | 0.23 | 0.00 | 96 | 1007.4 |
| 20260506082956 | 12 | 126 | 0.0 | 0.0 | 0.00 | 0.23 | 0.00 | 95 | 1007.5 |
| 20260506082456 | 12 | 126 | 0.0 | 0.0 | 0.00 | 0.23 | 0.00 | 95 | 1007.6 |
| 20260506081956 | 12 | 126 | 0.0 | 1.6 | 0.00 | 0.23 | 0.00 | 95 | 1007.4 |
| 20260506081454 | 12 | 126 | 0.0 | 4.8 | 0.00 | 0.23 | 0.00 | 95 | 1007.4 |
| 20260506080954 | 12 | 126 | 0.0 | 4.8 | 0.00 | 0.23 | 0.00 | 94 | 1007.4 |
| 20260506080720 | 12 | 126 | 0.0 | 0.0 | 0.00 | 0.23 | 0.00 | 94 | 1007.4 |
| 20260506073453 | 12 | 126 | 0.0 | 3.2 | 0.00 | 0.23 | 0.00 | 94 | 1007.5 |
| 20260506073214 | 12 | 94 | 0.0 | 0.0 | 0.00 | 0.23 | 0.00 | 95 | 1007.5 |
| 20260506072454 | 12 | 94 | 0.0 | 0.0 | 0.00 | 0.23 | 0.00 | 94 | 1007.5 |
| 20260506071956 | 12 | 94 | 0.0 | 0.0 | 0.00 | 0.23 | 0.00 | 94 | 1007.4 |
| 20260506071224 | 12 | 94 | 0.0 | 0.0 | 0.00 | 0.23 | 0.00 | 93 | 1007.3 |
| 20260506061941 | 13 | 101 | 1.6 | 6.4 | 0.00 | 0.23 | 0.00 | 91 | 1007.2 |
| 20260506061659 | 13 | 103 | 0.0 | 4.8 | 0.00 | 0.23 | 0.00 | 91 | 1007.2 |
| 20260506061158 | 13 | 111 | 0.0 | 4.8 | 0.00 | 0.23 | 0.00 | 91 | 1007.1 |
| 20260506060439 | 13 | 91 | 0.0 | 4.8 | 0.00 | 0.23 | 0.00 | 91 | 1007.0 |
| 20260506044426 | 13 | 101 | 0.0 | 0.0 | 0.00 | 0.23 | 0.00 | 92 | 1007.2 |
| 20260506044409 | 13 | 101 | 0.0 | 0.0 | 0.00 | 0.23 | 0.00 | 92 | 1007.1 |
| 20260506043419 | 13 | 101 | 0.0 | 0.0 | 0.00 | 0.23 | 0.00 | 92 | 1007.1 |
| 20260506043150 | 13 | 101 | 0.0 | 0.0 | 0.00 | 0.23 | 0.00 | 92 | 1007.3 |
| 20260506042436 | 13 | 101 | 0.0 | 0.0 | 0.00 | 0.23 | 0.00 | 94 | 1007.3 |
| 20260506041919 | 13 | 101 | 0.0 | 0.0 | 0.00 | 0.23 | 0.00 | 94 | 1007.2 |
| 20260506041417 | 13 | 101 | 0.0 | 0.0 | 0.00 | 0.23 | 0.00 | 94 | 1007.2 |
| 20260506041353 | 13 | 101 | 0.0 | 0.0 | 0.00 | 0.23 | 0.00 | 93 | 1007.2 |
| 20260506040629 | 13 | 101 | 0.0 | 0.0 | 0.00 | 0.23 | 0.00 | 94 | 1007.2 |
| 20260506035857 | 12 | 101 | 0.0 | 0.0 | 0.00 | 0.23 | 0.23 | 93 | 1007.2 |
| 20260506035358 | 12 | 101 | 0.0 | 0.0 | 0.00 | 0.23 | 0.23 | 94 | 1007.2 |
| 20260506034857 | 12 | 101 | 0.0 | 0.0 | 0.00 | 0.23 | 0.23 | 94 | 1007.2 |
| 20260506034356 | 13 | 101 | 0.0 | 0.0 | 0.00 | 0.23 | 0.23 | 94 | 1007.3 |
| 20260506033858 | 13 | 101 | 0.0 | 0.0 | 0.00 | 0.23 | 0.23 | 94 | 1007.3 |
| 20260506033358 | 12 | 101 | 0.0 | 0.0 | 0.00 | 0.23 | 0.23 | 94 | 1007.2 |
| 20260506032855 | 12 | 101 | 0.0 | 0.0 | 0.00 | 0.23 | 0.23 | 94 | 1007.2 |
| 20260506031856 | 12 | 101 | 0.0 | 0.0 | 0.00 | 0.23 | 0.23 | 95 | 1007.3 |
| 20260506031351 | 12 | 101 | 0.0 | 0.0 | 0.00 | 0.23 | 0.23 | 95 | 1007.4 |